www.pogodaiklimat.ru

Погода и климат >> Архив погоды >> Таиланд >> Ко Ланта


ПОГОДА на Ко Ланта

  • Прогноз погоды на Ко Ланта
  • Монитор погоды на Ко Ланта

АРХИВ ПОГОДЫ на Ко Ланта

Время (UTC), дата Ветер
(напр.,м/с)
 
Видим.   Явления Облачность Т
(С)
Тd
(С)
f
(%)
Тe
(С)
Тes
(С)
Комфортность P
(гПа)
Po
(гПа)
Тmin
(С)
Tmax
(С)
R
(мм)
R24
(мм)
S
(см)
21 16.07 З 10 10 км 10/3 600 м
[Cu hum Ac lent Cs]
+27.1 +25.5 91 +40 +40 очень
душно
1006.9 1006.1
00 17.07 ЮВ 3 10 км {дождь} 10/3 600 м
[Cu Sc Ac lent Cs]
+26.0 +23.5 86 +35 +35 очень
душно
1007.5 1006.7 +24.0 0.8
03 17.07 З 9 10 км в посл. час дождь 8/3 600 м
[Cu Sc Ac lent Cs]
+27.4 +25.3 88 +40 +40 очень
душно
1008.3 1007.5 4
06 17.07 штиль 0 10 км {дождь} 10/3 600 м
[Cu hum Ac lent Cs]
+26.4 +23.6 85 +36 +46 очень
душно
1007.5 1006.7 4
09 17.07 З 4 10 км в посл. час дождь 10/3 600 м
[Cu Sc Ac lent Cs]
+29.5 +26.7 85 +46 +48 опасность
перегрева
1005.9 1005.1 0.2
12 17.07 З 5 10 км слаб. дождь 10/3 600 м
[Cu Sc Ac As Cs]
+24.1 +21.7 86 +31 +31 очень
душно
1006.7 1005.9 +30.2 2
15 17.07 З 8 10 км {дождь} 10/10 600 м
[Cb calv]
+23.7 +23.0 96 +31 +31 очень
душно
1009.9 1009.1 8
18 17.07 З 5 10 км {дождь} 10/3 600 м
[Cu Sc Ac lent Cs]
+24.0 +23.1 95 +32 +32 очень
душно
1008.1 1007.3 15
21 17.07 штиль 0 10 км 10/3 600 м
[Cu Sc Ac lent Cs]
+24.9 +24.2 96 +34 +34 очень
душно
1006.0 1005.2
00 18.07 В 3 10 км {дождь} 9/3 600 м
[Cu Sc Ac lent Cs]
+25.5 +24.2 93 +35 +36 очень
душно
1006.4 1005.6 +23.8 0.2
03 18.07 СВ 5 10 км слаб. дождь 10/3 600 м
[Cu Sc Ac lent Cs]
+25.7 +24.8 95 +36 +39 очень
душно
1007.7 1006.8 6
06 18.07 СЗ 6 8000 м слаб. дождь 10/3 300 м
[Cu Sc Ac lent Cs]
+25.7 +23.2 86 +34 +37 очень
душно
1006.9 1006.0 7
09 18.07 З 8 10 км 10/3 600 м
[Cu Sc Ac lent Cs]
+28.6 +26.4 88 +44 +44 опасность
перегрева
1005.5 1004.7
12 18.07 З 18 10 км в посл. час дождь 10/3 600 м
[Cu Sc Ac lent Cs]
+26.6 +24.6 89 +38 +38 очень
душно
1006.9 1006.0 +29.5 16
15 18.07 штиль 0 9000 м слаб. дождь 10/3 600 м
[Cu Sc Ac As Cs]
+24.1 +23.4 96 +32 +32 очень
душно
1008.5 1007.7 9
18 18.07 В 4 10 км {дождь} 10/3 600 м
[Cu Sc Ac lent Cs]
+24.6 +23.7 95 +33 +33 очень
душно
1007.3 1006.5 9
21 18.07 З 17 9000 м слаб. дождь 10/3 50 м
[Cu Sc Ac As Cs]
+25.7 +25.0 96 +37 +37 очень
душно
1006.6 1005.8 5
00 19.07 СВ 5 10 км в посл. час дождь 10/3 600 м
[Cu Sc Ac lent Cs]
+24.8 +23.6 93 +34 +34 очень
душно
1006.7 1005.9 +23.7 14
03 19.07 З 4 8000 м дождь 10/3 600 м
[Cu Sc Ac As]
+24.6 +24.3 98 +34 +36 очень
душно
1008.9 1008.1 69
06 19.07 В 4 8000 м в посл. час дождь 8/3 600 м
[Cu Sc Ac lent Cs]
+25.2 +24.6 96 +35 +42 очень
душно
1007.3 1006.5 6
09 19.07 З 6 10 км в посл. час дождь 10/3 600 м
[Cu Sc Ac lent Cs]
+26.2 +25.5 96 +38 +39 очень
душно
1006.1 1005.2 2
12 19.07 ЮВ 6 10 км {дождь} 10/3 600 м
[Cu Sc Ac lent Cs]
+26.1 +25.4 96 +38 +38 очень
душно
1007.3 1006.4 +29.5 76
15 19.07 В 3 10 км 9/3 600 м
[Cu Sc Ac lent Cs]
+25.3 +24.6 96 +36 +36 очень
душно
1008.2 1007.4
18 19.07 В 3 10 км 9/3 600 м
[Cu Sc Ac lent Cs]
+25.2 +24.5 96 +35 +35 очень
душно
1007.9 1007.1
21 19.07 В 3 10 км 9/3 600 м
[Cu Sc Ac lent Cs]
+25.4 +24.7 96 +36 +36 очень
душно
1006.6 1005.8
00 20.07 В 5 10 км 10/3 600 м
[Cu Sc Ac lent Cs]
+25.5 +24.8 96 +36 +36 очень
душно
1007.8 1007.0 +24.5
03 20.07 В 3 10 км слаб. дождь 10/3 600 м
[Cu Sc Ac lent Cs]
+25.7 +25.0 96 +37 +41 очень
душно
1008.7 1007.9 8
06 20.07 З 8 10 км {дождь} 10/3 600 м
[Cu Sc Ac lent Cs]
+28.8 +27.1 91 +46 +47 опасность
перегрева
1008.4 1007.6 8
09 20.07 В 3 7000 м слаб. дождь 10/3 600 м
[Cu Sc Ac lent Cs]
+24.9 +24.0 95 +34 +37 очень
душно
1007.3 1006.5 8
12 20.07 штиль 0 10 км {дождь} 10/3 600 м
[Cu Sc Ac lent Cs]
+25.2 +24.3 95 +35 +35 очень
душно
1007.6 1006.7 +30.3 0.2
15 20.07 штиль 0 10 км 9/3 600 м
[Cu Sc Ac lent Cs]
+24.8 +23.9 95 +34 +34 очень
душно
1008.9 1008.1
18 20.07 В 3 10 км 9/3 600 м
[Cu Sc Ac lent Cs]
+24.7 +24.0 96 +34 +34 очень
душно
1008.8 1008.0
21 20.07 В 4 10 км 9/3 600 м
[Cu Sc Ac lent Cs]
+24.7 +24.3 98 +34 +34 очень
душно
1007.3 1006.4
00 21.07 штиль 0 10 км 9/3 600 м
[Cu Sc Ac lent Cs]
+24.7 +24.3 98 +34 +35 очень
душно
1007.9 1007.1 +24.3
03 21.07 штиль 0 10 км 9/3 600 м
[Cu Sc Ac lent Cs]
+28.4 +27.0 92 +45 +52 опасность
перегрева
1009.5 1008.7
06 21.07 Ю 3 10 км 8/3 600 м
[Cu Sc Ac lent Cs]
+31.6 +28.5 84 +53 +61 опасность
перегрева
1008.8 1008.0
09 21.07 З 5 10 км 8/3 600 м
[Cu Sc Ac lent Cs]
+31.0 +25.8 74 +46 +48 опасность
перегрева
1007.9 1007.1
12 21.07 З 8 10 км 8/3 600 м
[Cu Sc Ac lent Cs]
+29.3 +25.5 80 +43 +43 опасность
перегрева
1007.8 1007.0 +32.1
15 21.07 З 6 10 км 8/3 600 м
[Cu Sc Ac lent Cs]
+29.0 +25.5 81 +43 +43 опасность
перегрева
1009.4 1008.6
18 21.07 З 9 10 км 5/3 600 м
[Cu hum Ac lent Cs]
+28.9 +25.9 84 +43 +43 опасность
перегрева
1009.1 1008.2
21 21.07 З 4 10 км 5/3 600 м
[Cu hum Ac lent Cs]
+25.7 +24.5 93 +36 +36 очень
душно
1008.1 1007.3
00 22.07 СВ 3 10 км 6/3 600 м
[Cu hum Ac lent Cs]
+26.1 +24.8 93 +37 +38 очень
душно
1008.5 1007.6 +24.6
03 22.07 штиль 0 10 км 6/3 600 м
[Cu hum Ac lent Cs]
+30.9 +28.2 86 +52 +62 опасность
перегрева
1009.8 1009.0
06 22.07 З 6 10 км 6/3 600 м
[Cu hum Ac lent Cs]
+30.5 +26.0 77 +46 +50 опасность
перегрева
1008.7 1007.9
09 22.07 З 5 10 км 6/3 600 м
[Cu hum Ac lent Cs]
+31.1 +26.1 75 +47 +49 опасность
перегрева
1006.7 1005.9
12 22.07 штиль 0 10 км 9/3 600 м
[Cu Sc Ac lent Cs]
+29.4 +24.2 74 +41 +41 опасность
перегрева
1007.3 1006.4 +31.6
15 22.07 З 3 10 км 6/3 600 м
[Cu hum Ac lent Cs]
+26.2 +23.9 87 +36 +36 очень
душно
1009.7 1008.9
18 22.07 З 7 10 км 6/3 600 м
[Cu hum Ac lent Cs]
+25.3 +24.3 94 +35 +35 очень
душно
1009.5 1008.7
21 22.07 З 5 10 км 6/3 600 м
[Cu hum Ac lent Cs]
+25.6 +25.0 96 +36 +36 очень
душно
1008.4 1007.6
00 23.07 В 3 10 км 9/3 600 м
[Cu hum Ac lent Cs]
+25.7 +24.5 93 +36 +36 очень
душно
1009.2 1008.4 +24.5
03 23.07 штиль 0 10 км 9/3 600 м
[Cu Sc Ac lent Cs]
+30.8 +27.9 85 +51 +58 опасность
перегрева
1010.3 1009.4
06 23.07 Ю 5 10 км 8/3 600 м
[Cu Sc Ac lent Cs]
+31.8 +25.9 71 +47 +52 опасность
перегрева
1008.8 1008.0
09 23.07 Ю 6 10 км 6/3 600 м
[Cu Sc Ac lent Cs]
+31.2 +25.6 72 +46 +47 опасность
перегрева
1007.2 1006.4
12 23.07 штиль 0 10 км 8/3 600 м
[Cu Sc Ac lent Cs]
+27.8 +23.7 78 +38 +38 очень
душно
1008.3 1007.5 +32.2
15 23.07 З 9 10 км 8/3 600 м
[Cu hum Ac lent Cs]
+28.7 +26.0 85 +43 +43 опасность
перегрева
1010.4 1009.6
18 23.07 З 2 10 км 6/3 600 м
[Cu hum Ac lent Cs]
+26.3 +24.6 90 +37 +37 очень
душно
1010.0 1009.2

 

Местоположение метеостанции Ко Ланта (Таиланд): широта 7.53 долгота 99.05 высота над уровнем моря 3 м.

В архиве по умолчанию представлена погода на Ко Ланта за последнюю неделю. Архивные данные за месяц целиком и за предыдущие месяцы, начиная с января 2011 года, Вы можете получить, выбрав интересующий диапазон дат из раскрывающегося списка и нажав кнопку "Ввод!".


*Определитесь, кто Вы:
робот инопланетянин человек

Внимание! Время в таблицах - всемирное. Для получения местного времени необходимо прибавить поправку, которая равна 7 ч.

Смотрите также архив погоды в соседних городах и на ближайших метеорологических станциях:

Погода в Краби (Таиланд) (62 км)
Погода в Транге (Таиланд) (63 км)
Погода на Пхукете (Таиланд) (82 км)
Погода в Пхукет аэропорту (Таиланд) (105 км)
Погода в Чаванге (Таиланд) (112 км)
Погода в Прасанге (Таиланд) (118 км)
Погода в Накхонситхаммарате (Таиланд) (120 км)
Погода в Пхаттхалунг Агромете (Таиланд) (124 км)
Погода в Накхонситхаммарате 2 (Таиланд) (149 км)
Погода в Сатуне (Таиланд) (150 км)

Пояснения к столбцам:

Ветер - указаны скорость ветра в м/с - средняя за 10 мин, порывы в срок и между сроками (в фигурных скобках) и направление, откуда дует ветер: С - северный, СВ - северо-восточный, В - восточный, ЮВ - юго-восточный, Ю - южный, ЮЗ - юго-западный, З - западный, СЗ - северо-западный.
Видимость - горизонтальная дальность видимости в метрах или километрах. При видимости от 1 до 10 км при отсутствии осадков обычно наблюдается дымка, при ухудшении видимости до 1 км и менее - туман. В сухую погоду видимость может ухудшаться дымом, пылью или мглою.
Явления - указаны атмосферные явления, наблюдавшиеся в срок или в последний час перед сроком; фигурными скобками обозначены явления, наблюдавшиеся между сроками (за 1-3 часа до срока); квадратными скобками обозначены град или гололедные отложения с указанием их диаметра в мм.
Облачность - указаны через наклонную черту общая и нижняя облачность в баллах и высота нижней границы облаков в метрах; квадратными скобками обозначены формы облаков: Ci - перистые, Cs - перисто-слоистые, Cc - перисто-кучевые, Ac - высококучевые, As - высокослоистые, Sc - слоисто-кучевые, Ns - слоисто-дождевые, Cu - кучевые, Cb - кучево-дождевые. Подробнее классификацию облаков см. в Атласе облаков (PDF).
T - Температура воздуха - температура, измеренная на высоте 2 м над землей.
Td - Температура точки росы - температура, при понижении до которой содержащийся в воздухе водяной пар достигнет насыщения.
f - Относительная влажность воздуха - влажноcть воздуха, измеренная на высоте 2 м над землей.
Te - Эффективная температура - температура, которую ощущает одетый по сезону человек в тени. Характеристика душности погоды. При расчете учитывается влияние влажности воздуха и скорости ветра на теплоощущения человека.
Tes - Эффективная температура на солнце - температура, которую ощущает человек, с поправкой на солнечный нагрев. Характеристика знойности погоды. Зависит от высоты солнца над горизонтом, облачности и скорости ветра. Ночью, в пасмурную погоду, а также при ветре 12 м/с и более поправка равна нулю.
P - Атмосферное давление - приведенное к уровню моря атмосферное давление.
Po - Атмосферное давление - измеренное на уровне метеостанции атмосферное давление.
Tmin - Минимальная температура - минимум температуры воздуха на высоте 2 м над землей.
Tmax - Максимальная температура - максимум температуры воздуха на высоте 2 м над землей.
R - Количество осадков - Количество выпавших осадков за период времени, мм. При наведении курсора мыши на число - период времени, за который выпало указанное количество осадков.
R24 - Количество осадков - Количество выпавших осадков за 24 часа, мм.
S - Снежный покров - Высота снежного покрова, см. При наведении курсора мыши на число - состояние снежного покрова и степень покрытия местности в баллах.